Regional Weather Roundup
Issued by NWS

Home | Current Version | Previous Version | Graphics & Text | Print | Product List | Glossary On
Versions: 1 2 3 4 5 6 7 8 9 10 11 12 13 14 15 16 17 18 19 20 21 22 23 24 25 26 27 28 29 30 31 32 33 34 35 36 37 38 39 40 41 42 43 44 45 46 47 48 49 50
235
ASUS44 KLIX 210512
RWRLA
LOUISIANA WEATHER ROUNDUP
NATIONAL WEATHER SERVICE NEW ORLEANS LA
1200 AM CDT TUE APR 21 2015

NOTE: "FAIR" INDICATES FEW OR NO CLOUDS BELOW 12,000 FEET WITH NO
      SIGNIFICANT WEATHER AND/OR OBSTRUCTIONS TO VISIBILITY.
      SKY/WX - SKY CONDITION AND SIGNIFICANT WEATHER.
      TMP - AIR TEMPERATURE.    DP   - DEWPOINT TEMPERATURE.
      RH  - RELATIVE HUMIDITY.  PRES - PRESSURE.
      HX  - HEAT INDEX.         WCI  - WIND CHILL INDEX.

*  THESE STATIONS ARE NOT NWS OR FAA STATIONS AND ARE NOT UNDER
   NWS QUALITY CONTROL.

LAZ040-048-061>063-065-066-069-210600-
SOUTHEAST LOUISIANA

CITY           SKY/WX    TMP DP  RH WIND       PRES   REMARKS
N.O. AUDUBON     N/A     67  55  64 MISG        N/A
N.O. INTL ARPT MOCLDY    67  48  50 N7        29.97F
N.O. LAKEFRONT MOCLDY    71  50  47 N13       29.97F
SLIDELL        MOCLDY    61  55  81 N3        29.96F
BATON ROUGE    CLOUDY    61  57  87 CALM      29.99S
BOOTHVILLE     PTCLDY    68  59  73 VRB3      29.97S
BELLE CHASSE   MOCLDY    66  51  58 N5        29.96S
BOGALUSA*        N/A     59  54  83 CALM      30.00R
GALLIANO*      PTCLDY    65  58  79 N5        29.97S
NEW ROADS*     FAIR      60  57  90 CALM      30.00S
GONZALES*      FAIR      59  59 100 CALM      29.98F
HAMMOND*       CLOUDY    59  54  82 CALM      29.99F
HOUMA*         MOCLDY    64  57  78 NW5       29.98S
PORT FOURCHON* CLEAR     68  59  73 N7        30.00S

$$

LAZ041-044-053-054-210600-
SOUTHWEST LOUISIANA

CITY           SKY/WX    TMP DP  RH WIND       PRES   REMARKS
LAKE CHARLES   PTCLDY    58  54  86 CALM      30.00F
LAFAYETTE      MOCLDY    63  55  75 CALM      30.00S
PATTERSON      CLOUDY    64  55  72 N5        29.99F
SALT POINT       N/A     64  56  75 N3        29.97F
NEW IBERIA     CLOUDY    63  56  78 CALM      30.00F
CHENAULT AIRPK PTCLDY    58  55  87 CALM      30.01F

$$

LAZ027-028-210600-
CENTRAL LOUISIANA

CITY           SKY/WX    TMP DP  RH WIND       PRES   REMARKS
FORT POLK      CLOUDY    57  54  89 SE1       30.01R
ALEXANDRIA INT MOCLDY    57  54  89 CALM      30.00R
ALEXANDRIA     MOCLDY    54  51  90 CALM      30.01R

$$

LAZ001-002-210600-
NORTHWEST LOUISIANA

CITY           SKY/WX    TMP DP  RH WIND       PRES   REMARKS
SHREVEPORT     MOCLDY    56  47  71 CALM      30.00R
BARKSDALE AFB  PTCLDY    52  49  89 SE2       30.00R
DTN SHREVEPORT PTCLDY    55  47  74 CALM      30.01R

$$

LAZ014-016-210600-
NORTHEAST LOUISIANA

CITY           SKY/WX    TMP DP  RH WIND       PRES   REMARKS
MONROE         PTCLDY    53  48  83 CALM      30.00S
TALLULAH       MOCLDY    54  52  93 CALM      29.99S

$$




USA.gov is the U.S. government's official web portal to all federal, state and local government web resources and services.